Location: Duncanville
(32.6518°N, 96.9083°W)
Time: 10:32:05
(UTC+00:00)

COSMO-SKYMED 1 - Pass Details

Date: 11 February 2026
Orbit: 577 x 578 km, 97.9° (Epoch: 8 March)

Event Time Altitude Azimuth Distance (km) Brightness Sun altitude
Rises 12:29:32 0° 180° (S) 2,781 6.1 -10.0°
Reaches altitude 10° 12:31:44 10° 186° (S) 1,886 5.1 -9.5°
Maximum altitude 12:35:40 46° 260° (W) 779 2.7 -8.7°
Drops below altitude 10° 12:39:38 10° 335° (NNW) 1,897 4.7 -7.9°
Sets 12:41:52 0° 341° (NNW) 2,800 5.6 -7.5°
